GW3175 Weather Reports


time (UTC)temp
C
wind
direction
speed
KPH
gust
KPH
rain 1hr
cm
rain 24hr
cm
rain mn
cm
humidity
%
barometer
mb
20260902060434 12 107 1.6 4.8 0.00 0.00 0.00 99 1020.2
20260902055930 12 60 0.0 3.2 0.00 0.00 0.00 99 1020.0
20260902055426 12 141 0.0 3.2 0.00 0.00 0.00 99 1020.1
20260902054921 12 83 0.0 3.2 0.00 0.00 0.00 99 1020.1
20260902054416 12 101 0.0 3.2 0.00 0.00 0.00 99 1019.9
20260902053911 12 321 0.0 3.2 0.00 0.00 0.00 99 1020.0
20260902053407 12 182 0.0 3.2 0.00 0.00 0.00 99 1020.0
20260902052905 12 135 0.0 3.2 0.00 0.00 0.00 99 1019.8
20260902052401 12 105 1.6 3.2 0.00 0.00 0.00 99 1020.0
20260902051856 12 129 0.0 1.6 0.00 0.00 0.00 99 1019.8
20260902051356 12 47 1.6 3.2 0.00 0.00 0.00 99 1019.7
20260902050850 12 326 0.0 1.6 0.00 0.00 0.00 99 1019.6
20260902050349 12 85 0.0 3.2 0.00 0.00 0.00 99 1019.6
20260902045844 12 156 0.0 4.8 0.00 0.00 0.00 99 1019.6
20260902045340 12 119 0.0 3.2 0.00 0.00 0.00 99 1019.4
20260902044837 12 164 0.0 3.2 0.00 0.00 0.00 99 1019.3
20260902044332 12 130 1.6 3.2 0.00 0.00 0.00 99 1019.3
20260902043832 12 128 1.6 3.2 0.00 0.00 0.00 99 1019.5
20260902043327 12 159 0.0 3.2 0.00 0.00 0.00 99 1019.3
20260902042827 12 114 0.0 1.6 0.00 0.00 0.00 99 1019.4
20260902042321 12 59 0.0 3.2 0.00 0.00 0.00 99 1019.3
20260902041817 12 3 0.0 3.2 0.00 0.00 0.00 99 1018.9
20260902041316 12 143 0.0 3.2 0.00 0.00 0.00 99 1019.1
20260902040815 12 92 1.6 3.2 0.00 0.00 0.00 99 1019.0
20260902040311 12 149 1.6 3.2 0.00 0.00 0.00 99 1019.0
20260902035809 12 107 3.2 3.2 0.00 0.00 0.00 99 1018.8
20260902035306 12 118 3.2 4.8 0.00 0.00 0.00 99 1019.2
20260902034804 12 193 0.0 1.6 0.00 0.00 0.00 99 1019.1
20260902034300 12 144 0.0 3.2 0.00 0.00 0.00 99 1019.1
20260902033757 12 130 0.0 3.2 0.00 0.00 0.00 99 1019.1
20260902033253 12 151 1.6 3.2 0.00 0.00 0.00 99 1019.1
20260902032751 12 135 1.6 3.2 0.00 0.00 0.00 99 1019.2
20260902032246 12 139 3.2 3.2 0.00 0.00 0.00 99 1018.9
20260902031745 12 135 0.0 3.2 0.00 0.00 0.00 99 1019.1
20260902031241 12 195 3.2 3.2 0.00 0.00 0.00 99 1019.2
20260902030732 12 211 0.0 3.2 0.00 0.00 0.00 99 1019.0
20260902030232 12 194 1.6 3.2 0.00 0.00 0.00 99 1019.1
20260902025731 12 118 0.0 3.2 0.00 0.00 0.00 99 1018.7
20260902025226 13 132 0.0 4.8 0.00 0.00 0.00 99 1018.9
20260902024721 12 112 0.0 3.2 0.00 0.00 0.00 99 1019.0
20260902024216 13 118 1.6 3.2 0.00 0.00 0.00 99 1018.9
20260902023712 12 117 0.0 4.8 0.00 0.00 0.00 99 1018.9
20260902023207 13 87 0.0 3.2 0.00 0.00 0.00 99 1019.0
20260902022707 13 118 1.6 3.2 0.00 0.00 0.00 99 1019.0
20260902022202 13 131 0.0 3.2 0.00 0.00 0.00 99 1018.9
20260902021657 13 107 1.6 3.2 0.00 0.00 0.00 99 1018.9
20260902021152 13 183 0.0 3.2 0.00 0.00 0.00 99 1018.9
20260902020648 13 112 1.6 3.2 0.00 0.00 0.00 99 1019.0
20260902020144 13 129 0.0 3.2 0.00 0.00 0.00 99 1019.1
20260902015639 13 150 3.2 4.8 0.00 0.00 0.00 99 1019.0
20260902015136 13 148 1.6 4.8 0.00 0.00 0.00 99 1019.0
20260902014631 13 144 3.2 4.8 0.00 0.00 0.00 99 1018.9
20260902014127 13 132 3.2 4.8 0.00 0.00 0.00 99 1018.8
20260902013626 13 138 3.2 4.8 0.00 0.00 0.00 99 1018.8
20260902013122 13 146 1.6 4.8 0.00 0.00 0.00 99 1018.8
20260902012617 13 135 3.2 4.8 0.00 0.00 0.00 99 1018.9
20260902012112 13 139 1.6 4.8 0.00 0.00 0.00 99 1018.9
20260902011607 13 118 1.6 3.2 0.00 0.00 0.00 99 1019.0
20260902011106 13 117 1.6 3.2 0.00 0.00 0.00 99 1018.8
20260902010601 13 86 0.0 3.2 0.00 0.00 0.00 99 1018.8
20260902010057 13 135 0.0 3.2 0.00 0.00 0.00 99 1018.5
20260902005554 13 104 0.0 3.2 0.00 0.00 0.00 99 1018.6
20260902005051 14 117 0.0 3.2 0.00 0.00 0.00 99 1018.6
20260902004550 14 115 0.0 3.2 0.00 0.00 0.00 99 1018.5
20260902004045 14 130 0.0 3.2 0.00 0.00 0.00 99 1018.5
20260902003541 14 103 0.0 1.6 0.00 0.00 0.00 99 1018.3
20260902003036 14 85 1.6 3.2 0.00 0.00 0.00 99 1018.3
20260902002532 14 160 0.0 1.6 0.00 0.00 0.00 99 1018.5
20260902002027 14 225 0.0 1.6 0.00 0.00 0.00 99 1018.5
20260902001521 13 61 0.0 1.6 0.00 0.00 0.00 99 1018.4
20260902001016 14 135 0.0 3.2 0.00 0.00 0.00 99 1018.2
20260902000511 14 50 0.0 3.2 0.00 0.00 0.00 99 1018.4
20260902000006 14 107 0.0 1.6 0.00 0.00 0.00 99 1018.4
20260901235501 14 19 0.0 1.6 0.00 0.00 0.00 99 1018.5
20260901234955 14 37 0.0 3.2 0.00 0.00 0.00 99 1018.3
20260901234449 15 118 0.0 3.2 0.00 0.00 0.00 99 1018.1
20260901233944 15 130 1.6 1.6 0.00 0.00 0.00 99 1018.3
20260901233445 15 230 0.0 3.2 0.00 0.00 0.00 99 1018.5
20260901232941 15 114 0.0 3.2 0.00 0.00 0.00 99 1018.4
20260901232437 15 44 0.0 3.2 0.00 0.00 0.00 99 1018.4
20260901231931 16 60 0.0 3.2 0.00 0.00 0.00 99 1018.5
20260901231427 16 0 0.0 3.2 0.00 0.00 0.00 98 1018.0
20260901230924 16 7 0.0 3.2 0.00 0.00 0.00 98 1018.2
20260901230423 16 43 0.0 4.8 0.00 0.00 0.00 97 1018.2
20260901225918 16 128 1.6 3.2 0.00 0.00 0.00 96 1018.1
20260901225413 16 33 0.0 3.2 0.00 0.00 0.00 96 1018.0
20260901224908 17 89 0.0 4.8 0.00 0.00 0.00 95 1018.3
20260901224404 17 325 1.6 4.8 0.00 0.00 0.00 94 1018.0
20260901223900 17 13 1.6 4.8 0.00 0.00 0.00 93 1018.0
20260901223355 17 28 3.2 9.7 0.00 0.00 0.00 93 1017.9
20260901222850 17 16 3.2 3.2 0.00 0.00 0.00 93 1017.9
20260901222342 17 108 4.8 6.4 0.00 0.00 0.00 93 1018.0
20260901221837 18 129 0.0 8.0 0.00 0.00 0.00 92 1017.9
20260901221332 18 198 4.8 8.0 0.00 0.00 0.00 92 1017.9
20260901220832 18 65 3.2 6.4 0.00 0.00 0.00 91 1017.8
20260901220331 18 116 9.7 9.7 0.00 0.00 0.00 91 1018.0
20260901215830 18 324 3.2 4.8 0.00 0.00 0.00 91 1017.9
20260901215329 18 344 3.2 4.8 0.00 0.00 0.00 90 1018.1
20260901214828 18 42 1.6 8.0 0.00 0.00 0.00 90 1017.9
20260901214327 18 124 0.0 6.4 0.00 0.00 0.00 89 1017.8
20260901213822 19 306 3.2 6.4 0.00 0.00 0.00 89 1017.7
20260901213321 19 132 4.8 11.3 0.00 0.00 0.00 89 1017.6
20260901212816 18 232 4.8 11.3 0.00 0.00 0.00 89 1017.4
20260901212312 19 260 1.6 6.4 0.00 0.00 0.00 88 1017.4
20260901211807 19 338 3.2 6.4 0.00 0.00 0.00 88 1017.3
20260901211303 19 300 3.2 11.3 0.00 0.00 0.00 87 1017.4
20260901210758 19 57 4.8 14.5 0.00 0.00 0.00 87 1017.2
20260901210249 19 214 4.8 8.0 0.00 0.00 0.00 87 1017.2
20260901205745 20 51 1.6 9.7 0.00 0.00 0.00 86 1017.2
20260901205244 20 69 3.2 9.7 0.00 0.00 0.00 85 1017.2
20260901204740 20 95 3.2 14.5 0.00 0.00 0.00 83 1017.0
20260901204236 21 141 3.2 8.0 0.00 0.00 0.00 81 1017.2
20260901203730 21 180 4.8 9.7 0.00 0.00 0.00 82 1017.1
20260901203225 21 103 3.2 6.4 0.00 0.00 0.00 79 1017.1
20260901202724 21 284 4.8 9.7 0.00 0.00 0.00 79 1017.2
20260901202220 21 80 11.3 14.5 0.00 0.00 0.00 78 1017.0
20260901201715 21 147 6.4 9.7 0.00 0.00 0.00 79 1017.2
20260901201215 21 226 3.2 9.7 0.00 0.00 0.00 77 1017.4
20260901200709 21 39 6.4 11.3 0.00 0.00 0.00 77 1017.2
20260901200204 21 211 3.2 12.9 0.00 0.00 0.00 76 1017.3
20260901195702 21 249 8.0 16.1 0.00 0.00 0.00 76 1017.3
20260901195156 21 291 4.8 12.9 0.00 0.00 0.00 77 1017.4
20260901194652 22 36 6.4 9.7 0.00 0.00 0.00 76 1017.3
20260901194146 21 226 9.7 12.9 0.00 0.00 0.00 77 1017.4
20260901193642 21 206 4.8 11.3 0.00 0.00 0.00 77 1017.6
20260901193137 21 155 3.2 14.5 0.00 0.00 0.00 77 1017.4
20260901192631 21 274 0.0 12.9 0.00 0.00 0.00 77 1017.3
20260901192127 22 215 3.2 19.3 0.00 0.00 0.00 75 1017.2
20260901191623 21 59 11.3 17.7 0.00 0.00 0.00 73 1017.3
20260901191119 22 49 0.0 9.7 0.00 0.00 0.00 75 1017.4
20260901190614 22 178 3.2 8.0 0.00 0.00 0.00 75 1017.4
20260901190108 22 236 8.0 11.3 0.00 0.00 0.00 74 1017.3
20260901185606 22 200 6.4 8.0 0.00 0.00 0.00 71 1017.3
20260901185105 22 206 4.8 11.3 0.00 0.00 0.00 71 1017.2
20260901184601 22 345 4.8 14.5 0.00 0.00 0.00 66 1017.4
20260901184055 22 156 6.4 12.9 0.00 0.00 0.00 70 1017.3
20260901183555 22 229 8.0 16.1 0.00 0.00 0.00 72 1017.4
20260901183052 22 239 4.8 17.7 0.00 0.00 0.00 71 1017.4
20260901182548 22 218 3.2 8.0 0.00 0.00 0.00 73 1017.3
20260901182047 22 264 4.8 8.0 0.00 0.00 0.00 70 1017.3
20260901181546 23 282 3.2 9.7 0.00 0.00 0.00 70 1017.4
20260901181041 22 320 4.8 8.0 0.00 0.00 0.00 74 1017.3
20260901180539 22 337 0.0 9.7 0.00 0.00 0.00 72 1017.2
20260901180034 22 282 4.8 11.3 0.00 0.00 0.00 73 1017.1
20260901175528 21 30 0.0 11.3 0.00 0.00 0.00 73 1017.3
20260901175023 22 72 1.6 14.5 0.00 0.00 0.00 72 1017.2
20260901174519 21 156 1.6 12.9 0.00 0.00 0.00 73 1017.2
20260901174017 22 304 0.0 9.7 0.00 0.00 0.00 70 1017.2
20260901173514 22 133 9.7 12.9 0.00 0.00 0.00 67 1017.0
20260901173010 21 78 4.8 11.3 0.00 0.00 0.00 68 1017.1
20260901172506 22 346 3.2 6.4 0.00 0.00 0.00 72 1017.3
20260901172003 22 143 0.0 8.0 0.00 0.00 0.00 74 1017.2
20260901171502 21 329 4.8 9.7 0.00 0.00 0.00 77 1017.1
20260901171001 21 111 3.2 9.7 0.00 0.00 0.00 78 1017.3
20260901170457 21 66 0.0 6.4 0.00 0.00 0.00 80 1017.1
20260901165956 20 132 0.0 12.9 0.00 0.00 0.00 81 1017.2
20260901165451 21 42 4.8 11.3 0.00 0.00 0.00 83 1017.2
20260901164947 20 80 6.4 6.4 0.00 0.00 0.00 83 1017.1
20260901164442 20 227 3.2 9.7 0.00 0.00 0.00 85 1017.0
20260901163937 20 280 3.2 9.7 0.00 0.00 0.00 84 1017.0
20260901163432 20 71 4.8 17.7 0.00 0.00 0.00 82 1017.0
20260901162931 21 79 4.8 9.7 0.00 0.00 0.00 79 1016.9
20260901162426 21 74 6.4 9.7 0.00 0.00 0.00 80 1017.1
20260901161920 20 234 6.4 11.3 0.00 0.00 0.00 83 1017.2
20260901161419 20 244 3.2 11.3 0.00 0.00 0.00 81 1017.1
20260901160914 20 180 0.0 11.3 0.00 0.00 0.00 82 1017.1
20260901160410 21 116 3.2 8.0 0.00 0.00 0.00 81 1017.3
20260901155909 22 49 6.4 8.0 0.00 0.00 0.00 78 1017.1
20260901155404 21 333 4.8 9.7 0.00 0.00 0.00 80 1017.2
20260901154901 21 80 6.4 11.3 0.00 0.00 0.00 79 1017.3
20260901154400 21 124 6.4 9.7 0.00 0.00 0.00 82 1017.4
20260901153855 21 33 3.2 4.8 0.00 0.00 0.00 81 1017.3
20260901153354 20 104 8.0 17.7 0.00 0.00 0.00 82 1017.3
20260901152853 21 272 1.6 6.4 0.00 0.00 0.00 80 1017.2
20260901152348 21 353 3.2 8.0 0.00 0.00 0.00 82 1017.3
20260901151843 20 244 1.6 11.3 0.00 0.00 0.00 82 1017.2
20260901151337 20 247 0.0 4.8 0.00 0.00 0.00 81 1017.2
20260901150837 21 30 0.0 6.4 0.00 0.00 0.00 81 1017.1
20260901150335 21 327 4.8 9.7 0.00 0.00 0.00 80 1016.9
20260901145832 21 168 0.0 4.8 0.00 0.00 0.00 79 1016.8
20260901145327 21 152 4.8 6.4 0.00 0.00 0.00 81 1017.1
20260901144822 20 310 4.8 11.3 0.00 0.00 0.00 82 1017.0
20260901144318 20 281 3.2 8.0 0.00 0.00 0.00 82 1017.0
20260901143814 21 24 1.6 6.4 0.00 0.00 0.00 78 1017.1
20260901143310 21 18 1.6 4.8 0.00 0.00 0.00 79 1017.1
20260901142806 20 264 3.2 8.0 0.00 0.00 0.00 79 1017.1
20260901142306 21 14 3.2 8.0 0.00 0.00 0.00 79 1017.1
20260901141759 20 357 4.8 9.7 0.00 0.00 0.00 81 1017.1
20260901141254 20 277 3.2 8.0 0.00 0.00 0.00 82 1017.0
20260901140753 20 99 3.2 4.8 0.00 0.00 0.00 80 1017.3
20260901140251 20 61 6.4 6.4 0.00 0.00 0.00 79 1017.2
20260901135747 20 40 1.6 6.4 0.00 0.00 0.00 78 1017.2
20260901135241 19 346 3.2 6.4 0.00 0.00 0.00 80 1017.1
20260901134737 18 293 1.6 8.0 0.00 0.00 0.00 81 1017.3
20260901134237 18 22 3.2 9.7 0.00 0.00 0.00 82 1017.3
20260901133736 19 64 3.2 6.4 0.00 0.00 0.00 79 1017.3
20260901133231 18 315 3.2 6.4 0.00 0.00 0.00 81 1017.4
20260901132729 18 316 0.0 8.0 0.00 0.00 0.00 81 1017.2
20260901132225 18 27 4.8 6.4 0.00 0.00 0.00 82 1017.2
20260901131719 17 309 6.4 11.3 0.00 0.00 0.00 82 1017.1
20260901131218 17 321 1.6 8.0 0.00 0.00 0.00 85 1017.2
20260901130714 17 284 1.6 3.2 0.00 0.00 0.00 84 1017.0
20260901130213 17 35 3.2 4.8 0.00 0.00 0.00 85 1017.1
20260901125710 17 345 0.0 3.2 0.00 0.00 0.00 85 1016.9
20260901125206 17 310 0.0 4.8 0.00 0.00 0.00 85 1017.3
20260901124701 17 325 1.6 4.8 0.00 0.00 0.00 85 1017.0
20260901124155 17 19 0.0 3.2 0.00 0.00 0.00 86 1017.1
20260901123650 17 94 1.6 3.2 0.00 0.00 0.00 86 1017.1
20260901123150 17 25 1.6 3.2 0.00 0.00 0.00 89 1017.2
20260901122648 16 80 0.0 3.2 0.00 0.00 0.00 88 1017.1
20260901122143 16 46 1.6 4.8 0.00 0.00 0.00 89 1017.1
20260901121637 15 3 3.2 3.2 0.00 0.00 0.00 89 1016.7
20260901121132 16 69 1.6 3.2 0.00 0.00 0.00 90 1017.1
20260901120627 15 35 0.0 3.2 0.00 0.00 0.00 90 1017.1
20260901120122 15 25 0.0 3.2 0.00 0.00 0.00 91 1016.9
20260901115617 15 89 0.0 3.2 0.00 0.00 0.00 92 1016.9
20260901115113 15 0 3.2 4.8 0.00 0.00 0.00 89 1016.8
20260901114609 16 81 0.0 4.8 0.00 0.00 0.00 93 1016.8
20260901114108 15 96 0.0 3.2 0.00 0.00 0.00 99 1016.8
20260901113607 13 43 0.0 3.2 0.00 0.00 0.00 99 1016.6
20260901113058 12 62 3.2 3.2 0.00 0.00 0.00 99 1016.7
20260901112557 12 72 1.6 3.2 0.00 0.00 0.00 99 1016.7
20260901112051 12 71 1.6 3.2 0.00 0.00 0.00 99 1016.4
20260901111550 12 69 1.6 3.2 0.00 0.00 0.00 99 1016.6
20260901111049 12 164 0.0 3.2 0.00 0.00 0.00 99 1016.5
20260901110545 12 103 0.0 3.2 0.00 0.00 0.00 99 1016.6
20260901110041 12 175 0.0 3.2 0.00 0.00 0.00 99 1016.6
20260901105537 12 112 0.0 3.2 0.00 0.00 0.00 99 1016.4
20260901105036 12 79 1.6 3.2 0.00 0.00 0.00 99 1016.5
20260901104532 12 122 3.2 4.8 0.00 0.00 0.00 99 1016.5
20260901104027 12 116 0.0 3.2 0.00 0.00 0.00 99 1016.4
20260901103522 12 124 1.6 4.8 0.00 0.00 0.00 99 1016.2
20260901103018 12 134 0.0 3.2 0.00 0.00 0.00 99 1016.1
20260901102517 12 166 0.0 3.2 0.00 0.00 0.00 99 1016.4
20260901102012 12 135 0.0 3.2 0.00 0.00 0.00 99 1016.2
20260901101508 12 133 0.0 3.2 0.00 0.00 0.00 99 1016.0
20260901101002 12 114 0.0 3.2 0.00 0.00 0.00 99 1016.2
20260901100502 11 115 1.6 3.2 0.00 0.00 0.00 99 1016.2
20260901100000 11 83 0.0 3.2 0.00 0.00 0.00 99 1015.9
20260901095500 11 129 0.0 3.2 0.00 0.00 0.00 99 1015.9
20260901094957 12 127 0.0 3.2 0.00 0.00 0.00 99 1016.0
20260901094453 12 156 0.0 3.2 0.00 0.00 0.00 99 1016.0
20260901093952 11 142 0.0 3.2 0.00 0.00 0.00 99 1015.9
20260901093447 11 118 1.6 3.2 0.00 0.00 0.00 99 1016.2
20260901092947 11 142 0.0 3.2 0.00 0.00 0.00 99 1016.2
20260901092443 11 127 0.0 4.8 0.00 0.00 0.00 99 1016.1
20260901091939 11 140 3.2 4.8 0.00 0.00 0.00 99 1016.3
20260901091434 11 64 1.6 3.2 0.00 0.00 0.00 99 1016.2
20260901090929 11 6 0.0 3.2 0.00 0.00 0.00 99 1016.1
20260901090428 11 53 0.0 3.2 0.00 0.00 0.00 99 1016.2
20260901085924 11 63 0.0 3.2 0.00 0.00 0.00 99 1016.2
20260901085419 11 29 0.0 1.6 0.00 0.00 0.00 99 1016.1
20260901084916 11 89 0.0 3.2 0.00 0.00 0.00 99 1016.1
20260901084412 11 63 0.0 3.2 0.00 0.00 0.00 99 1016.3
20260901083908 12 2 0.0 1.6 0.00 0.00 0.00 99 1016.0
20260901083408 12 207 1.6 3.2 0.00 0.00 0.00 99 1016.3
20260901082906 12 147 0.0 3.2 0.00 0.00 0.00 99 1016.3
20260901082401 12 69 0.0 3.2 0.00 0.00 0.00 99 1016.1
20260901081856 12 185 0.0 3.2 0.00 0.00 0.00 99 1016.1
20260901081351 12 152 0.0 4.8 0.00 0.00 0.00 99 1016.1
20260901080851 12 189 3.2 4.8 0.00 0.00 0.00 99 1016.3
20260901080345 11 189 3.2 4.8 0.00 0.00 0.00 99 1016.5
20260901075840 11 115 1.6 3.2 0.00 0.00 0.00 99 1016.4
20260901075335 11 122 0.0 1.6 0.00 0.00 0.00 99 1016.4
20260901074830 11 6 1.6 3.2 0.00 0.00 0.00 98 1016.5
20260901074324 12 30 1.6 3.2 0.00 0.00 0.00 98 1016.3
20260901073820 12 203 0.0 1.6 0.00 0.00 0.00 98 1016.3
20260901073315 12 234 0.0 3.2 0.00 0.00 0.00 99 1016.3
20260901072812 12 194 0.0 4.8 0.00 0.00 0.00 99 1016.3
20260901072311 11 137 0.0 3.2 0.00 0.00 0.00 99 1016.3
20260901071807 11 19 0.0 1.6 0.00 0.00 0.00 99 1016.3
20260901071305 11 31 1.6 3.2 0.00 0.00 0.00 99 1016.4
20260901070804 12 102 0.0 3.2 0.00 0.00 0.00 99 1016.5
20260901070259 12 227 0.0 3.2 0.00 0.00 0.00 99 1016.5
20260901065759 12 191 3.2 3.2 0.00 0.00 0.00 99 1016.5
20260901065254 11 173 0.0 3.2 0.00 0.00 0.00 99 1016.4
20260901064750 11 147 0.0 1.6 0.00 0.00 0.00 99 1016.4
20260901064246 11 68 3.2 3.2 0.00 0.00 0.00 99 1016.6
20260901063743 11 44 0.0 3.2 0.00 0.00 0.00 99 1016.6
20260901063239 11 57 0.0 3.2 0.00 0.00 0.00 98 1016.5
20260901062735 11 54 0.0 3.2 0.00 0.00 0.00 98 1016.5
20260901062230 11 11 0.0 3.2 0.00 0.00 0.00 98 1016.6
20260901061726 12 69 1.6 3.2 0.00 0.00 0.00 97 1016.7
20260901061225 12 38 0.0 3.2 0.00 0.00 0.00 97 1016.7